Location: *
(35.1500°N, 76.6700°W)
Time: 23:00:05
(UTC+00:00)

Daily predictions for brighter satellites

Satellite Brightness Start Highest point End
(mag) Time Altitude Azimuth Time Altitude Azimuth Time Altitude Azimuth
Cosmos 2084 3.8 22:53:22 10° SSW 22:57:47 52° ESE 23:02:11 10° NE
USA 116 4.2 22:56:54 10° NE 22:59:38 27° E 23:02:29 10° SSE
Cosmos 1606 Rocket 3.8 22:58:01 10° SSE 23:02:13 45° E 23:06:25 10° NNE
Cosmos 1626 2.1 22:59:05 10° N 23:02:46 60° E 23:06:26 10° SSE
Cosmos 1726 3.5 23:03:18 10° SE 23:05:49 18° E 23:08:21 10° NE
OAO 2 Rocket 3.5 23:01:31 10° WSW 23:06:47 72° SSE 23:12:01 10° E
CZ-4 R/B 1.8 23:03:33 10° SE 23:07:23 40° ENE 23:11:19 10° N
Lacrosse 5 rocket 3.5 23:07:23 10° NNE 23:07:41 10° NNE 23:07:58 10° NE
ASTRO E2 3.7 23:08:29 10° W 23:12:15 40° S 23:16:00 10° ESE
ISS -0.9 23:11:33 10° W 23:13:50 17° SW 23:16:07 10° S
Cosmos 1758 Rocket 3.6 23:10:38 10° N 23:15:01 57° E 23:19:24 10° SSE
NOAA 12 4.3 23:11:05 10° S 23:16:20 79° WSW 23:21:38 10° NNW
FengYun 1-2 T 4.3 23:10:56 10° SSE 23:16:29 62° ENE 23:22:02 10° N
SL-14 R/B 3.7 23:13:34 10° NNW 23:17:23 63° W 23:21:10 10° S
USA 234 4.2 23:16:23 10° ENE 23:21:48 27° SE 23:27:12 10° S
BREEZE-M DEB (TANK) 4.2 23:03:38 10° SW 23:23:13 75° SE 23:27:35 11° ENE
Cosmos 2285 Rocket 4.2 23:17:18 10° N 23:23:33 51° ENE 23:29:44 10° SE
SWAS 4.5 23:20:51 10° S 23:24:59 56° ESE 23:29:11 10° NNE
Cosmos 1470 4.4 23:21:51 10° SSW 23:25:35 39° W 23:29:21 10° N
Cosmos 1356 4.2 23:23:51 10° SSE 23:26:51 29° E 23:29:52 10° NNE
SKYMED 2 4.1 23:23:11 10° N 23:27:29 63° WNW 23:31:45 10° SSW
Cosmos 1908 4.3 23:25:26 10° SE 23:28:36 24° E 23:31:46 10° NE
YAOGAN 1 2.6 23:24:39 10° SSE 23:28:53 56° ENE 23:33:07 10° N
CSL-04 Debris 4.2 23:24:51 10° SSE 23:30:11 63° ENE 23:35:35 10° N
Envisat 3.3 23:28:47 10° S 23:33:50 70° WSW 23:38:54 10° NNW
Shenzhou-11 Module 3.0 23:31:20 10° W 23:33:54 34° NNW 23:35:31 18° NE
Meteor 2-12 Rocket 4.5 23:34:16 10° N 23:40:27 88° W 23:46:37 10° S
OAO 3 Rocket 3.4 23:36:52 10° WSW 23:41:46 62° SSE 23:44:35 25° E
Meteor 1-16 Rocket 4.1 23:36:07 10° S 23:41:48 79° E 23:47:19 10° N
Cosmos 1242 Rocket 3.3 23:38:46 10° NNE 23:42:06 31° ENE 23:43:08 27° ESE
CZ-4C R/B 3.0 23:36:28 10° NNW 23:44:01 74° ENE 23:52:22 10° SE
Meteor 1-21 Rocket 4.4 23:38:14 10° N 23:44:08 81° W 23:49:53 10° S
Cosmos 1726 Rocket 3.9 23:40:48 10° SSW 23:45:11 68° W 23:49:34 10° N
DMSP B5D1-3 4.4 23:40:43 10° NNE 23:45:51 76° ESE 23:50:59 10° S
Cosmos 1844 Rocket 3.6 23:43:27 10° SW 23:48:55 50° WNW 23:54:25 10° N
BREEZE M DEB (TANK) 4.1 23:46:31 10° NNW 23:48:57 20° NE 23:49:36 19° NE
YAOGAN 6 3.4 23:46:42 10° S 23:50:19 54° W 23:53:56 10° NNW
Cosmos 2058 Rocket 2.9 23:46:00 10° S 23:50:23 86° E 23:54:45 10° N
